DW3845 Weather Reports


Display with metric or nautical units.
time (UTC)temp
F
wind
direction
speed
MPH
gust
MPH
rain 1hr
in
rain 24hr
in
rain mn
in
humidity
%
barometer
mb
20260504174528 66 54 2.0 11.0 0.00 0.00 0.00 38 995.3
20260504173026 65 51 1.0 6.0 0.00 0.00 0.00 38 995.3
20260504171524 64 162 2.0 10.0 0.00 0.00 0.00 39 995.3
20260504081511 47 46 0.0 2.0 0.00 0.00 0.00 80 993.8
20260504044602 53 46 3.0 5.0 0.00 0.00 0.00 70 993.5
20260504043057 54 47 3.0 4.0 0.00 0.00 0.00 67 993.6
20260504041554 55 46 3.0 4.0 0.00 0.00 0.00 65 993.5
20260504040105 54 54 4.0 5.0 0.00 0.00 0.00 68 993.5
20260504034612 55 43 3.0 4.0 0.00 0.00 0.00 68 993.4
20260504033051 56 34 3.0 4.0 0.00 0.00 0.00 65 993.2
20260504031550 57 42 3.0 4.0 0.00 0.00 0.00 65 993.2
20260504030117 58 34 2.0 3.0 0.00 0.00 0.00 61 993.2
20260504024555 60 39 0.0 3.0 0.00 0.00 0.00 58 993.0
20260504023049 63 44 0.0 3.0 0.00 0.00 0.00 54 993.0
20260504021551 66 42 1.0 2.0 0.00 0.00 0.00 48 993.1
20260504020046 71 262 0.0 1.0 0.00 0.00 0.00 36 993.1
20260504014545 73 262 0.0 1.0 0.00 0.00 0.00 33 993.2
20260504013050 75 257 0.0 3.0 0.00 0.00 0.00 31 993.3
20260504011542 74 243 0.0 3.0 0.00 0.00 0.00 31 993.5
20260504010041 74 259 0.0 6.0 0.00 0.00 0.00 29 993.6
20260504004539 75 250 1.0 5.0 0.00 0.00 0.00 27 993.8
20260504003038 75 167 2.0 6.0 0.00 0.00 0.00 28 993.9
20260504001541 76 250 2.0 9.0 0.00 0.00 0.00 27 994.1
20260504000035 77 230 1.0 7.0 0.00 0.00 0.00 26 994.1
20260503234534 77 242 0.0 7.0 0.00 0.00 0.00 26 994.2
20260503233131 78 131 1.0 7.0 0.00 0.00 0.00 24 994.3
20260503231534 78 144 1.0 5.0 0.00 0.00 0.00 23 994.6
20260503230028 78 198 3.0 7.0 0.00 0.00 0.00 22 994.9
20260503224524 78 76 0.0 4.0 0.00 0.00 0.00 23 995.1
20260503223022 77 111 0.0 5.0 0.00 0.00 0.00 23 995.4
20260503221518 77 211 0.0 7.0 0.00 0.00 0.00 23 995.6
20260503220017 77 46 0.0 2.0 0.00 0.00 0.00 22 995.8
20260503214514 77 187 1.0 5.0 0.00 0.00 0.00 23 996.1
20260503213011 76 134 0.0 5.0 0.00 0.00 0.00 23 996.3
20260503211508 76 304 0.0 7.0 0.00 0.00 0.00 22 996.5
20260503210008 75 260 0.0 5.0 0.00 0.00 0.00 22 996.8
20260503204502 74 274 0.0 6.0 0.00 0.00 0.00 21 997.2
20260503203059 74 270 1.0 7.0 0.00 0.00 0.00 20 997.3
20260503201556 74 169 0.0 6.0 0.00 0.00 0.00 25 997.5
20260503200052 74 152 0.0 5.0 0.00 0.00 0.00 25 997.7
20260503194549 73 214 1.0 7.0 0.00 0.00 0.00 28 997.9
20260503193057 72 181 0.0 4.0 0.00 0.00 0.00 30 998.2
20260503191544 71 46 0.0 3.0 0.00 0.00 0.00 30 998.4
20260503190045 70 256 0.0 1.0 0.00 0.00 0.00 32 998.7
20260503184532 69 221 0.0 1.0 0.00 0.00 0.00 35 998.8
20260503183030 69 250 0.0 1.0 0.00 0.00 0.00 39 998.9
20260503181527 68 245 0.0 0.0 0.00 0.00 0.00 37 999.2
20260503180035 67 253 0.0 0.0 0.00 0.00 0.00 42 999.3